View from above orbital plane
|
View from above satellite
|
Ground track
|
The orbit data is extracted from the following two-line orbital elements,
1 39026U 12072A 21058.86819773 .00002382 00000-0 83808-4 0 9993
2 39026 97.2391 54.4764 0037780 56.6439 303.8409 15.29637290456276
Epoch (UTC): | 27 February 2021 20:50:12 |
Eccentricity: | 0.0037780 |
inclination: | 97.2391° |
perigee height: | 451 km |
apogee height: | 503 km |
right ascension of ascending node: | 54.4764° |
argument of perigee: | 56.6439° |
revolutions per day: | 15.29637290 |
mean anomaly at epoch: | 303.8409° |
orbit number at epoch: | 45627 |
The dashed part of the orbit path shows where the satellite is in the earth's shadow,
|
|